Preview of NWS' New Version of Forecast
This preview is not operational and should not be used for support decisions.

Regional Weather Roundup (RWR)

Issued by National Weather Service (NWS)

                            
000
ASUS43 KMKX 241320
RWRWI 

WISCONSIN REGIONAL WEATHER ROUNDUP
NATIONAL WEATHER SERVICE MILWAUKEE/SULLIVAN WI
800 AM CDT WED APR 24 2019

NOTE: "FAIR" INDICATES FEW OR NO CLOUDS BELOW 12,000 FEET WITH NO
SIGNIFICANT WEATHER AND/OR OBSTRUCTIONS TO VISIBILITY.

WIZ001-002-006>008-014>016-023>028-241400-
NORTHWEST WISCONSIN
  
CITY           SKY/WX    TMP DP  RH WIND       PRES   REMARKS
SUPERIOR ARPT  PTSUNNY   37  31  78 NE5       29.84F WCI  34          
ASHLAND        FAIR      54  37  52 S12       29.87F                  
HAYWARD        CLOUDY    52  36  54 S10       29.90S                  
SIREN          CLOUDY    55  34  46 S9        29.88F                  
CUMBERLAND     PTSUNNY   45  36  70 S6        29.92S                  
RICE LAKE      FAIR      48  38  68 S7        29.93F                  
CHETEK         FAIR      45  40  82 CALM      29.93S                  
LADYSMITH      PTSUNNY   46  36  69 SE3       29.95S                  
EAU CLAIRE     FAIR      47  39  74 CALM      29.93S                  
MENOMONIE      FAIR      44  38  77 SE5       29.93F                  
NEW RICHMOND   FAIR      52  36  53 S8        29.90F                  
OSCEOLA        FAIR      50  38  64 S7        29.93F                  
$$
 
WIZ003>005-009-010-017-018-241400-
NORTH CENTRAL WISCONSIN
  
CITY           SKY/WX    TMP DP  RH WIND       PRES   REMARKS
MANITOWISH WTR FAIR      42  35  76 S8        29.93F                  
ARBOR VITAE    PTSUNNY   43  38  82 S7        29.95S                  
WOODRUFF       PTSUNNY   43  38  82 S7        29.95S                  
RHINELANDER    NOT AVBL                                               
EAGLE RIVER    FAIR      43  32  66 CALM      29.95S                  
LAND O LAKES   FAIR      43  33  69 S6        29.96F                  
PHILLIPS       FAIR      45  33  64 S6        29.92F                  
TOMAHAWK       FAIR      40  36  86 CALM      29.97S                  
MEDFORD        FAIR      41  38  87 S7        29.95F                  
MERRILL        FAIR      44  38  79 S3        29.97F                  
$$
 
WIZ029-030-035-036-043>047-241400-
CENTRAL WISCONSIN
  
CITY           SKY/WX    TMP DP  RH WIND       PRES   REMARKS
WAUSAU         NOT AVBL                                               
MOSINEE        MOSUNNY   41  37  87 S7        29.99S                  
MARSHFIELD     NOT AVBL                                               
STEVENS POINT  FAIR      43  38  81 S3        29.99F                  
WAUPACA        FAIR      46  38  72 SE6       30.01S                  
WAUTOMA        NOT AVBL                                               
WISC RAPIDS    NOT AVBL                                               
CAMP DOUGLAS   SUNNY     45  45 100 SE5       29.97F                  
$$
 
WIZ011>013-019>022-031-037>040-048>050-241400-
NORTHEAST WISCONSIN
  
CITY           SKY/WX    TMP DP  RH WIND       PRES   REMARKS
ANTIGO         FAIR      41  35  79 S10       29.98F                  
SHAWANO        FAIR      47  42  82 S3        30.00F                  
OCONTO         FAIR      45  37  71 S6        30.02F                  
STURGEON BAY   FAIR      44  36  73 S7        30.04S                  
GREEN BAY      FAIR      44  36  73 S7        30.02F                  
MANITOWOC      FAIR      45  37  73 S9        30.05S                  
APPLETON       MOSUNNY   46  34  61 S7        30.00S                  
CLINTONVILLE   FAIR      46  37  70 S5        30.00F                  
OSHKOSH        FAIR      45  36  70 S7        30.01S                  
$$
 
WIZ032>034-041-042-053>061-241400-
SOUTHWEST WISCONSIN
  
CITY           SKY/WX    TMP DP  RH WIND       PRES   REMARKS
LA CROSSE      FAIR      48  41  76 SE7       29.96F                  
SPARTA         FAIR      40  37  88 CALM      29.97F                  
VIROQUA        FAIR      51  42  71 SE3       29.98S                  
BOSCOBEL       FAIR      47  43  86 CALM      30.00S                  
PRAIRIE DU CHI FAIR      49  42  76 CALM      29.99S                  
PLATTEVILLE    FAIR      49  46  92 S5        30.01R                  
$$

WIZ056-057-062-063-064-067-068-241400-
SOUTH CENTRAL WISCONSIN
  
CITY           SKY/WX    TMP DP  RH WIND       PRES   REMARKS
REEDSBURG      FAIR      47  43  84 CALM      29.99S                  
BARABOO/DELLS  FAIR      49  42  74 S5        29.99S                  
LONE ROCK      FAIR      46  42  86 SE5       30.00S                  
MINERAL POINT  FAIR      46  43  87 S6        30.00S                  
MADISON        FAIR      47  43  86 S8        30.01S                  
MIDDLETON      FAIR      49  46  87 S6        30.01S                  
WATERTOWN      FAIR      46  40  77 SE8       30.02S                  
MONROE         FAIR      47  42  82 MISG      30.01S                  
JANESVILLE     PTSUNNY   48  46  93 SE7       30.02S FOG              
$$
 
WIZ051-052-058>065-066-070>072-241400-
SOUTHEAST WISCONSIN
  
CITY           SKY/WX    TMP DP  RH WIND       PRES   REMARKS
MILWAUKEE      FAIR      46  36  68 S7        30.04F                  
WAUKESHA       SUNNY     43  34  70 SE6       30.04S                  
MILWAUKEE/TIMM SUNNY     45  32  61 SE6       30.05S                  
RACINE         FAIR      46  33  60 S9        30.06F                  
KENOSHA        FAIR      46  38  73 SE6       30.05S                  
FOND DU LAC    FAIR      46  36  68 S9        30.01F                  
SHEBOYGAN      FAIR      43  36  76 S12       30.04S                  
WEST BEND      FAIR      43  36  75 SE5       30.03F                  
JUNEAU         FAIR      45  38  74 SE6       30.03S                  
$$

LSZ147-162-241400-
LAKE SUPERIOR
  
STATION/POSITION TIME  TEMP    WIND        PRES    WAVE
                       AIR SEA DIR/SP/G            HT/PER
                 (UTC) (F)     (DEG/KT/KT) (MB)    (FT/S)
$$
 
LMZ867-665-643>646-241400-
LAKE MICHIGAN
  
STATION/POSITION TIME  TEMP    WIND        PRES    WAVE
                       AIR SEA DIR/SP/G            HT/PER
                 (UTC) (F)     (DEG/KT/KT) (MB)    (FT/S)
NORTHPORT PIER   1240   37     130/  2/  3 1016.9R
KEWAUNEE LAKESHO 1254   44     170/ 10/ 11 1016.3F
SHEBOYGAN LAKESH 1300   42     180/ 12/ 13 1017.4F
MILWAUKEE LAKESH 1300   42                   N/A
KENOSHA   LAKESH 1300   42     170/  5/  7 1017.6
$$

TC  - TEMPERATURE IN CELSIUS
VSB - VISIBILITY IN STATUTE MILES
WCI - WIND CHILL INDEX
HX  - HEAT INDEX